Simultaneous Nadir Overpasses (SNOs) Predictions

Prediction of SNOs between NOAA-15 and METOP-C Satellite Orbit:

Table of predicted SNOs for the next 14.0 days since TLE Epoch: 11/15/2022
Index Date (NOAA-15) Time (NOAA-15) Lat,Lon (NOAA-15) SZA (NOAA-15 ) Date (METOP-C) Time (METOP-C) Lat,Lon (METOP-C) SZA (METOP-C ) Distance(km) Time Diff (sec)
1 11/29/2022 01:29:19 -81.06, 16.40 75.38 11/29/2022 01:28:16 -81.06, 16.33 75.41 1.21 63
2 11/29/2022 02:19:54 81.06,-176.35 104.62 11/29/2022 02:18:56 81.06,-176.26 104.61 1.59 58
3 11/29/2022 03:10:21 -81.07, -9.03 75.38 11/29/2022 03:09:38 -81.05, -9.17 75.42 2.65 43



Historial Predications of SNOs between NOAA-15 and METOP-C
